Regional Weather Roundup
Issued by NWS

Home | Current Version | Previous Version | Graphics & Text | Print | Product List | Glossary On
Versions: 1 2 3 4 5 6 7 8 9 10 11 12 13 14 15 16 17 18 19 20 21 22 23 24 25 26 27 28 29 30 31 32 33 34 35 36 37 38 39 40 41 42 43 44 45 46 47 48 49 50
000
ASUS43 KOAX 270610
RWRNE

WEATHER ROUNDUP FOR NEBRASKA
NATIONAL WEATHER SERVICE OMAHA NE
100 AM CDT WED AUG 27 2014

NOTES: SATELLITE DATA IS BEING USED TO AUGMENT CLOUD COVER ABOVE
       12000 FEET.
       "FAIR" INDICATES FEW OR NO CLOUDS BELOW 12,000 FEET WITH NO
       SIGNIFICANT WEATHER AND/OR OBSTRUCTIONS TO VISIBILITY.

  * THESE STATIONS DO NOT REPORT WEATHER SUCH AS RAIN...SNOW OR FOG.

NEZ001>004-019>022-054>056-270700-
NEBRASKA PANHANDLE

CITY           SKY/WX    TMP DP  RH WIND       PRES   REMARKS
SCOTTSBLUFF    PTCLDY    64  62  93 SE5       30.14R
6HR MIN TEMP:  63; 6HR MAX TEMP:  72; 6HR PCP:  0.04;

ALLIANCE       MOCLDY    65  61  87 SE6       30.14F
6HR MIN TEMP:  65; 6HR MAX TEMP:  76; 6HR PCP: TRACE;

CHADRON        PTCLDY    64  60  87 N7        30.13R
6HR MIN TEMP:  64; 6HR MAX TEMP:  84; 6HR PCP: TRACE;

KIMBALL        MOCLDY    63  60  90 S6        30.18F
SIDNEY         PTCLDY    66  61  84 SE9       30.18S
6HR MIN TEMP:  66; 6HR MAX TEMP:  77;

$$

NEZ057>060-069>072-079>082-270700-
SOUTHWEST NEBRASKA

CITY           SKY/WX    TMP DP  RH WIND       PRES   REMARKS
NORTH PLATTE   CLOUDY    68  66  93 E9        30.13F
6HR MIN TEMP:  67; 6HR MAX TEMP:  78;

IMPERIAL       CLOUDY    68  65  90 SE8       30.16S
6HR MIN TEMP:  68; 6HR MAX TEMP:  78;

LEXINGTON      CLOUDY    71  69  93 E12       30.13S
MCCOOK         TSTM      68  66  93 W26G39    30.16R VSB 1/4
6HR MIN TEMP:  69; 6HR MAX TEMP:  80; 6HR PCP:  0.66;

OGALLALA       CLOUDY    66  63  88 SE5       30.16R
$$

NEZ005>010-023>029-035>040-094-270700-
NORTH CENTRAL NEBRASKA

CITY           SKY/WX    TMP DP  RH WIND       PRES   REMARKS
VALENTINE      CLOUDY    68  64  87 SE8       30.12S
6HR MIN TEMP:  68; 6HR MAX TEMP:  80;

AINSWORTH      MOCLDY    66  65  95 SE7       30.14S
BROKEN BOW     CLOUDY    69  67  93 SE10      30.14F FOG
6HR MIN TEMP:  68; 6HR MAX TEMP:  78;

O`NEILL        CLOUDY    67  66  94 SE9       30.15F
ORD            CLOUDY    67  65  93 SE6       30.12F
6HR MIN TEMP:  67; 6HR MAX TEMP:  74;

THEDFORD       MOCLDY    68  65  92 SE10      30.15F
$$

NEZ041-046>049-061>064-073>077-083>087-270700-
SOUTH CENTRAL NEBRASKA

CITY           SKY/WX    TMP DP  RH WIND       PRES   REMARKS
GRAND ISLAND   MOCLDY    68  66  93 E7        30.14F FOG
6HR MIN TEMP:  68; 6HR MAX TEMP:  78;

AURORA         FAIR      67  67 100 NE5       30.14R FOG
HASTINGS       FAIR      69  65  86 E9        30.13S
6HR MIN TEMP:  69; 6HR MAX TEMP:  77;

HEBRON         FAIR      71  66  85 E3        30.11S
HOLDREGE       FAIR      69  68  94 CALM      30.12F FOG
KEARNEY *      CLOUDY    70  66  88 NE9       30.13F
YORK           CLOUDY    68 N/A N/A NE6       30.14S
$$

NEZ011>018-030>034-042>045-270700-
NORTHEAST NEBRASKA

CITY           SKY/WX    TMP DP  RH WIND       PRES   REMARKS
NORFOLK        CLOUDY    65  62  90 CALM      30.14F
6HR MIN TEMP:  65; 6HR MAX TEMP:  72;

ALBION         CLOUDY    66  63  89 E5        30.15F
BLAIR          FAIR      68  65  90 NE5       30.14S
FREMONT        FAIR      69  66  90 CALM      30.14S
TEKAMAH        FAIR      66  64  93 CALM      30.14S
6HR MIN TEMP:  65; 6HR MAX TEMP:  76;

WAYNE          FAIR      63  61  96 CALM      30.15F
$$

NEZ050>053-065>068-078-088>093-270700-
SOUTHEAST NEBRASKA

CITY           SKY/WX    TMP DP  RH WIND       PRES   REMARKS
LINCOLN        FAIR      68  65  90 N6        30.13S
6HR MIN TEMP:  68; 6HR MAX TEMP:  78;

OMAHA EPPLEY   MOCLDY    69  66  90 NW3       30.13R
6HR MIN TEMP:  68; 6HR MAX TEMP:  74;

BEATRICE       FAIR      69  68  95 NE5       30.11R
FALLS CITY     FAIR      72  70  93 E5        30.09S
6HR MIN TEMP:  72; 6HR MAX TEMP:  82;

NEBRASKA CITY  MOCLDY    68  68 100 NE5       30.12S
PLATTSMOUTH    FAIR      69  66  91 E3        30.13S
$$

NEZ044-045-051>053-067-270700-
OMAHA AREA

CITY           SKY/WX    TMP DP  RH WIND       PRES   REMARKS
OMAHA EPPLEY   MOCLDY    69  66  90 NW3       30.13R
6HR MIN TEMP:  68; 6HR MAX TEMP:  74;

BLAIR          FAIR      68  65  90 NE5       30.14S
FREMONT        FAIR      69  66  90 CALM      30.14S
MILLARD        FAIR      70  66  87 CALM      30.12F
OFFUTT AFB     MOCLDY    70  70  99 E5        30.12S
PLATTSMOUTH    FAIR      69  66  91 E3        30.13S
WAHOO          FAIR      67  64  90 N3        30.13S
$$



USA.gov is the U.S. government's official web portal to all federal, state and local government web resources and services.